Regional Weather Roundup
Issued by NWS

Home | Current Version | Previous Version | Graphics & Text | Print | Product List | Glossary On
Versions: 1 2 3 4 5 6 7 8 9 10 11 12 13 14 15 16 17 18 19 20 21 22 23 24 25 26 27 28 29 30 31 32 33 34 35 36 37 38 39 40 41 42 43 44 45 46 47 48 49 50
000
ASUS44 KMEG 251410
RWRTN
TENNESSEE HOURLY STATE WEATHER ROUNDUP
NATIONAL WEATHER SERVICE MEMPHIS TN
900 AM CDT SUN SEP 25 2016

TNZ002-004-019-021-049-052-054-088>092-251500-
WEST TENNESSEE

CITY           SKY/WX    TMP DP  RH WIND       PRES   REMARKS
MEMPHIS INTL   MOSUNNY   82  66  58 CALM      30.06S
NWS MEMPHIS      N/A     76 N/A N/A MISG        N/A
JACKSON        SUNNY    N/A N/A N/A CALM      30.08R
DYERSBURG      PTSUNNY  N/A N/A N/A MISG        N/A
UNION CITY     SUNNY     75  72  88 CALM      30.07S
PARIS          SUNNY     75  66  73 SE5       30.09S
HUNTINGDON       N/A     75  70  83 CALM      30.08R
LEXINGTON      SUNNY     73  68  83 CALM      30.07
$$

TNZ008-025-027-028-033-062-065-066-251500-
NORTH MIDDLE TENNESSEE

CITY           SKY/WX    TMP DP  RH WIND       PRES   REMARKS
NASHVILLE      SUNNY     77  67  71 CALM      30.10S
PORTLAND       SUNNY     75  68  78 CALM      30.11S
CLARKSVILLE    SUNNY     74  67  78 CALM      30.09F
SMYRNA         SUNNY     72  66  81 CALM      30.11R
COOKEVILLE     SUNNY     75  68  78 CALM      30.11S
GALLATIN       SUNNY     73  68  83 CALM      30.12S
CROSSVILLE     SUNNY     76  64  66 SE5       30.16F
$$

TNZ061-075-076-078-094-096-097-251500-
SOUTH MIDDLE TENNESSEE

CITY           SKY/WX    TMP DP  RH WIND       PRES   REMARKS
FAYETTEVILLE   PTSUNNY   77  66  69 CALM      30.09F
TULLAHOMA      SUNNY     77  63  61 SE3       30.11F
WINCHESTER     SUNNY     77  66  69 CALM      30.10F
MCMINNVILLE    SUNNY     73  70  88 NE14      30.11F
COLUMBIA       SUNNY    N/A N/A N/A CALM      30.08S
SHELBYVILLE    SUNNY     75  70  83 CALM      30.10F
$$

TNZ017-018-042-046-047-251500-
NORTHEAST TENNESSEE

CITY           SKY/WX    TMP DP  RH WIND       PRES   REMARKS
TRI CITIES     SUNNY     72  63  73 CALM      30.16S
ELIZABETHTON   SUNNY     73  63  68 NE3       30.15F
$$

TNZ012-013-036-069-073-074-251500-
CENTRAL EAST TENNESSEE

CITY           SKY/WX    TMP DP  RH WIND       PRES   REMARKS
KNOXVILLE      SUNNY     74  64  71 SE5       30.12S
OAK RIDGE      SUNNY     76  66  71 CALM      30.14S
DOWNTOWN KNOXV SUNNY     75  66  73 CALM      30.12F
GATLINBURG     SUNNY     73  63  68 SW3       30.12F
MORRISTOWN     SUNNY     75  64  69 VRB3      30.13F
JACKSBORO      SUNNY     73  66  78 CALM      30.16S
$$

TNZ083-085-099-251500-
SOUTHEAST TENNESSEE

CITY           SKY/WX    TMP DP  RH WIND       PRES   REMARKS
CHATTANOOGA    SUNNY     77  65  66 CALM      30.12S
$$

SKY/WX REPORTED AS FAIR MEANS FEW OR NO CLOUDS BELOW
12 THOUSAND FEET.





USA.gov is the U.S. government's official web portal to all federal, state and local government web resources and services.